^^
Saratoga-Weather Station Historical Data
Daily Summary for March 8, 2020 Units:  Metric    English   Both
Daily Weekly Monthly Yearly Custom
  High: Low: Average:
Temperature: 12.2 °C 5.6 °C 8.3 °C
Dew Point: 7.6 °C 2.6 °C 5.3 °C
Humidity: 93% 64% 82%
Wind Speed: 14.5km/h 0km/h 3.3km/h
Wind Gust: 27.4km/h - -
Wind- - SSW
Pressure: 1021.3 hPa 1010.5 hPa -
Precipitation: 2.3 mm    
Historical Graphs
 
 
Tabular Data for March 8, 2020
Time Temperature Dew Point Pressure Wind Wind Speed Wind Gust Humidity Rainfall Rate (Hourly) solar
00:01 6.8 °C 3.1 °C 1021.3 hPa West 1.4 km/h 3.2 km/h 77% 0.0 mm 0 W/m2
00:06 6.8 °C 3.1 °C 1021.3 hPa North 1.4 km/h 3.2 km/h 77% 0.0 mm 0 W/m2
00:11 6.8 °C 3.1 °C 1021.0 hPa SW 3.2 km/h 6.4 km/h 77% 0.0 mm 0 W/m2
00:16 6.8 °C 3.1 °C 1021.0 hPa Calm   3.2 km/h 77% 0.0 mm 0 W/m2
00:21 6.8 °C 3.1 °C 1021.0 hPa East 1.4 km/h 4.8 km/h 77% 0.0 mm 0 W/m2
00:27 6.8 °C 3.1 °C 1021.0 hPa East 3.2 km/h 4.8 km/h 77% 0.0 mm 0 W/m2
00:32 6.7 °C 3 °C 1021.0 hPa Calm   3.2 km/h 77% 0.0 mm 0 W/m2
00:37 6.7 °C 3.1 °C 1021.0 hPa East 3.2 km/h 4.8 km/h 78% 0.0 mm 0 W/m2
00:42 6.7 °C 3.1 °C 1020.7 hPa East 1.4 km/h 3.2 km/h 78% 0.0 mm 0 W/m2
00:47 6.6 °C 3 °C 1020.7 hPa ENE 1.4 km/h 3.2 km/h 78% 0.0 mm 0 W/m2
00:52 6.6 °C 3 °C 1020.7 hPa ENE 3.2 km/h 3.2 km/h 78% 0.0 mm 0 W/m2
00:57 6.6 °C 3 °C 1020.7 hPa East 3.2 km/h 4.8 km/h 78% 0.0 mm 0 W/m2
01:02 6.6 °C 3 °C 1020.7 hPa Calm   6.4 km/h 78% 0.0 mm 0 W/m2
01:07 6.6 °C 3 °C 1020.7 hPa ESE 3.2 km/h 4.8 km/h 78% 0.0 mm 0 W/m2
01:12 6.5 °C 2.9 °C 1020.7 hPa Calm   3.2 km/h 78% 0.0 mm 0 W/m2
01:17 6.5 °C 3.1 °C 1020.7 hPa East 3.2 km/h 4.8 km/h 79% 0.0 mm 0 W/m2
01:22 6.4 °C 3 °C 1020.7 hPa Calm   3.2 km/h 79% 0.0 mm 0 W/m2
01:27 6.4 °C 3 °C 1020.3 hPa SSE 1.4 km/h 4.8 km/h 79% 0.0 mm 0 W/m2
01:32 6.3 °C 2.9 °C 1020.3 hPa Calm   1.6 km/h 79% 0.0 mm 0 W/m2
01:37 6.3 °C 2.9 °C 1020.3 hPa SSE 1.4 km/h 4.8 km/h 79% 0.0 mm 0 W/m2
01:42 6.3 °C 2.9 °C 1020.3 hPa NNW 1.4 km/h 12.9 km/h 79% 0.0 mm 0 W/m2
01:47 6.3 °C 2.9 °C 1020.3 hPa East 3.2 km/h 4.8 km/h 79% 0.0 mm 0 W/m2
01:52 6.3 °C 2.9 °C 1020.0 hPa ESE 1.4 km/h 4.8 km/h 79% 0.0 mm 0 W/m2
01:57 6.3 °C 2.9 °C 1020.0 hPa East 1.4 km/h 9.7 km/h 79% 0.0 mm 0 W/m2
02:02 6.3 °C 2.9 °C 1020.0 hPa ESE 4.7 km/h 4.8 km/h 79% 0.0 mm 0 W/m2
02:07 6.3 °C 2.9 °C 1020.0 hPa ESE 3.2 km/h 6.4 km/h 79% 0.0 mm 0 W/m2
02:12 6.3 °C 2.9 °C 1019.6 hPa ENE 3.2 km/h 4.8 km/h 79% 0.0 mm 0 W/m2
02:17 6.2 °C 3 °C 1019.6 hPa East 1.4 km/h 6.4 km/h 80% 0.0 mm 0 W/m2
02:22 6.1 °C 2.7 °C 1019.6 hPa East 1.4 km/h 3.2 km/h 79% 0.0 mm 0 W/m2
02:27 6 °C 2.8 °C 1019.6 hPa East 3.2 km/h 3.2 km/h 80% 0.0 mm 0 W/m2
02:32 6 °C 2.8 °C 1019.6 hPa Calm   3.2 km/h 80% 0.0 mm 0 W/m2
02:37 5.9 °C 2.7 °C 1019.6 hPa East 3.2 km/h 4.8 km/h 80% 0.0 mm 0 W/m2
02:42 5.8 °C 2.6 °C 1019.6 hPa East 1.4 km/h 3.2 km/h 80% 0.0 mm 0 W/m2
02:47 5.8 °C 2.6 °C 1019.6 hPa Calm   4.8 km/h 80% 0.0 mm 0 W/m2
02:52 5.6 °C 2.6 °C 1019.6 hPa ENE 1.4 km/h 1.6 km/h 81% 0.0 mm 0 W/m2
02:57 5.6 °C 2.6 °C 1019.6 hPa ENE 3.2 km/h 3.2 km/h 81% 0.0 mm 0 W/m2
03:02 5.7 °C 2.7 °C 1019.3 hPa NE 3.2 km/h 3.2 km/h 81% 0.0 mm 0 W/m2
03:07 5.8 °C 2.6 °C 1019.3 hPa Calm   3.2 km/h 80% 0.0 mm 0 W/m2
03:12 5.9 °C 2.7 °C 1019.3 hPa ENE 3.2 km/h 4.8 km/h 80% 0.0 mm 0 W/m2
03:17 5.9 °C 2.7 °C 1019.3 hPa Calm   6.4 km/h 80% 0.0 mm 0 W/m2
03:22 6 °C 2.6 °C 1019.3 hPa NE 3.2 km/h 4.8 km/h 79% 0.0 mm 0 W/m2
03:27 6 °C 2.6 °C 1019.6 hPa NE 1.4 km/h 1.6 km/h 79% 0.0 mm 0 W/m2
03:32 6.1 °C 2.7 °C 1019.3 hPa NE 4.7 km/h 4.8 km/h 79% 0.0 mm 0 W/m2
03:37 6.2 °C 2.8 °C 1019.3 hPa WNW 13 km/h 14.5 km/h 79% 0.0 mm 0 W/m2
03:42 6.3 °C 2.9 °C 1019.3 hPa East 1.4 km/h 3.2 km/h 79% 0.0 mm 0 W/m2
03:47 6.3 °C 2.9 °C 1019.3 hPa Calm   14.5 km/h 79% 0.0 mm 0 W/m2
03:52 6.3 °C 2.9 °C 1019.3 hPa NNE 3.2 km/h 4.8 km/h 79% 0.0 mm 0 W/m2
03:57 6.3 °C 2.9 °C 1019.3 hPa Calm   3.2 km/h 79% 0.0 mm 0 W/m2
04:02 6.4 °C 3 °C 1019.0 hPa NW 1.4 km/h 4.8 km/h 79% 0.0 mm 0 W/m2
04:07 6.4 °C 3 °C 1019.0 hPa West 4.7 km/h 6.4 km/h 79% 0.0 mm 0 W/m2
04:12 6.5 °C 3.1 °C 1019.0 hPa NNW 3.2 km/h 4.8 km/h 79% 0.0 mm 0 W/m2
04:17 6.5 °C 2.9 °C 1019.0 hPa NNE 3.2 km/h 3.2 km/h 78% 0.0 mm 0 W/m2
04:22 6.5 °C 3.1 °C 1019.0 hPa Calm   4.8 km/h 79% 0.0 mm 0 W/m2
04:27 6.4 °C 3 °C 1019.0 hPa Calm   3.2 km/h 79% 0.0 mm 0 W/m2
04:32 6.5 °C 3.1 °C 1019.0 hPa SW 4.7 km/h 6.4 km/h 79% 0.0 mm 0 W/m2
04:37 6.5 °C 3.1 °C 1019.0 hPa ENE 3.2 km/h 3.2 km/h 79% 0.0 mm 0 W/m2
04:42 6.5 °C 3.1 °C 1019.0 hPa ENE 1.4 km/h 4.8 km/h 79% 0.0 mm 0 W/m2
04:47 6.5 °C 3.1 °C 1018.6 hPa NNE 1.4 km/h 3.2 km/h 79% 0.0 mm 0 W/m2
04:52 6.6 °C 3.4 °C 1018.6 hPa Calm   1.6 km/h 80% 0.0 mm 0 W/m2
04:57 6.5 °C 3.1 °C 1018.6 hPa WNW 1.4 km/h 12.9 km/h 79% 0.0 mm 0 W/m2
05:02 6.6 °C 3.2 °C 1018.6 hPa ENE 1.4 km/h 3.2 km/h 79% 0.0 mm 0 W/m2
05:08 6.6 °C 3.4 °C 1018.6 hPa NNE 3.2 km/h 12.9 km/h 80% 0.0 mm 0 W/m2
05:13 6.6 °C 3.4 °C 1018.6 hPa NW 1.4 km/h 6.4 km/h 80% 0.0 mm 0 W/m2
05:18 6.6 °C 3.4 °C 1018.6 hPa ENE 3.2 km/h 4.8 km/h 80% 0.0 mm 0 W/m2
05:23 6.6 °C 3.4 °C 1018.3 hPa Calm   4.8 km/h 80% 0.0 mm 0 W/m2
05:28 6.6 °C 3.4 °C 1018.3 hPa NNE 3.2 km/h 3.2 km/h 80% 0.0 mm 0 W/m2
05:33 6.6 °C 3.4 °C 1018.3 hPa SW 4.7 km/h 4.8 km/h 80% 0.0 mm 0 W/m2
05:38 6.6 °C 3.4 °C 1018.3 hPa East 3.2 km/h 4.8 km/h 80% 0.0 mm 0 W/m2
05:43 6.5 °C 3.3 °C 1018.3 hPa NNW 1.4 km/h 6.4 km/h 80% 0.0 mm 0 W/m2
05:48 6.6 °C 3.4 °C 1018.0 hPa NNW 1.4 km/h 1.6 km/h 80% 0.0 mm 0 W/m2
05:53 6.6 °C 3.6 °C 1018.0 hPa Calm   3.2 km/h 81% 0.0 mm 0 W/m2
05:58 6.6 °C 3.6 °C 1018.0 hPa SE 1.4 km/h 3.2 km/h 81% 0.0 mm 0 W/m2
06:03 6.5 °C 3.5 °C 1018.0 hPa Calm   4.8 km/h 81% 0.0 mm 0 W/m2
06:08 6.6 °C 3.6 °C 1018.0 hPa North 3.2 km/h 4.8 km/h 81% 0.0 mm 0 W/m2
06:13 6.5 °C 3.5 °C 1018.0 hPa ENE 1.4 km/h 6.4 km/h 81% 0.0 mm 0 W/m2
06:18 6.5 °C 3.5 °C 1018.0 hPa Calm   3.2 km/h 81% 0.0 mm 0 W/m2
06:23 6.4 °C 3.4 °C 1018.0 hPa North 1.4 km/h 6.4 km/h 81% 0.0 mm 0 W/m2
06:28 6.5 °C 3.5 °C 1018.0 hPa NNW 1.4 km/h 3.2 km/h 81% 0.0 mm 0 W/m2
06:33 6.5 °C 3.5 °C 1018.0 hPa Calm   4.8 km/h 81% 0.0 mm 0 W/m2
06:38 6.6 °C 3.6 °C 1018.0 hPa Calm   3.2 km/h 81% 0.0 mm 0 W/m2
06:43 6.6 °C 3.6 °C 1018.0 hPa NW 1.4 km/h 3.2 km/h 81% 0.0 mm 0 W/m2
06:48 6.6 °C 3.6 °C 1018.0 hPa NE 1.4 km/h 4.8 km/h 81% 0.0 mm 0 W/m2
06:53 6.6 °C 3.7 °C 1018.0 hPa NE 1.4 km/h 4.8 km/h 82% 0.0 mm 0 W/m2
06:58 6.6 °C 3.7 °C 1018.0 hPa NE 3.2 km/h 3.2 km/h 82% 0.0 mm 0 W/m2
07:03 6.6 °C 3.7 °C 1018.0 hPa Calm   4.8 km/h 82% 0.0 mm 0 W/m2
07:08 6.6 °C 3.7 °C 1018.0 hPa West 3.2 km/h 3.2 km/h 82% 0.0 mm 0 W/m2
07:13 6.6 °C 3.7 °C 1018.0 hPa East 1.4 km/h 4.8 km/h 82% 0.0 mm 5 W/m2
07:18 6.5 °C 3.6 °C 1018.0 hPa NNE 6.4 km/h 6.4 km/h 82% 0.0 mm 7 W/m2
07:23 6.5 °C 3.8 °C 1018.0 hPa NNE 1.4 km/h 3.2 km/h 83% 0.0 mm 11 W/m2
07:28 6.5 °C 3.8 °C 1018.0 hPa West 1.4 km/h 6.4 km/h 83% 0.0 mm 14 W/m2
07:33 6.6 °C 3.9 °C 1018.0 hPa East 3.2 km/h 3.2 km/h 83% 0.0 mm 14 W/m2
07:38 6.6 °C 3.9 °C 1018.0 hPa NE 3.2 km/h 4.8 km/h 83% 0.0 mm 12 W/m2
07:43 6.6 °C 3.9 °C 1018.0 hPa NE 3.2 km/h 3.2 km/h 83% 0.0 mm 14 W/m2
07:48 6.6 °C 3.9 °C 1018.0 hPa ENE 1.4 km/h 6.4 km/h 83% 0.0 mm 16 W/m2
07:54 6.6 °C 3.9 °C 1018.0 hPa North 4.7 km/h 6.4 km/h 83% 0.0 mm 19 W/m2
07:59 6.7 °C 4 °C 1018.0 hPa WNW 1.4 km/h 3.2 km/h 83% 0.0 mm 23 W/m2
08:04 6.7 °C 4 °C 1018.0 hPa NW 3.2 km/h 6.4 km/h 83% 0.0 mm 28 W/m2
08:09 6.8 °C 4.1 °C 1018.0 hPa WSW 3.2 km/h 6.4 km/h 83% 0.0 mm 32 W/m2
08:14 6.8 °C 4.1 °C 1018.0 hPa ENE 1.4 km/h 4.8 km/h 83% 0.0 mm 33 W/m2
08:19 6.8 °C 4.1 °C 1018.0 hPa NW 1.4 km/h 9.7 km/h 83% 0.0 mm 35 W/m2
08:24 6.9 °C 4.2 °C 1018.0 hPa ENE 1.4 km/h 4.8 km/h 83% 0.0 mm 32 W/m2
08:29 6.9 °C 4.2 °C 1018.0 hPa ENE 3.2 km/h 6.4 km/h 83% 0.0 mm 33 W/m2
08:34 6.9 °C 4.4 °C 1018.0 hPa NE 1.4 km/h 4.8 km/h 84% 0.0 mm 40 W/m2
08:39 6.9 °C 4.4 °C 1018.0 hPa North 3.2 km/h 14.5 km/h 84% 0.0 mm 51 W/m2
08:44 7 °C 4.5 °C 1018.0 hPa NW 1.4 km/h 14.5 km/h 84% 0.0 mm 88 W/m2
08:49 7.1 °C 4.6 °C 1018.0 hPa Calm   8 km/h 84% 0.0 mm 97 W/m2
08:54 7.1 °C 4.6 °C 1018.0 hPa WSW 1.4 km/h 3.2 km/h 84% 0.0 mm 109 W/m2
08:59 7.2 °C 4.7 °C 1018.3 hPa SSE 3.2 km/h 17.7 km/h 84% 0.0 mm 90 W/m2
09:04 7.3 °C 4.8 °C 1018.3 hPa NW 1.4 km/h 3.2 km/h 84% 0.0 mm 104 W/m2
09:09 7.3 °C 4.8 °C 1018.0 hPa Calm   17.7 km/h 84% 0.0 mm 130 W/m2
09:15 7.4 °C 4.7 °C 1018.0 hPa NNE 4.7 km/h 4.8 km/h 83% 0.0 mm 111 W/m2
09:20 7.5 °C 4.8 °C 1018.0 hPa WNW 4.7 km/h 8 km/h 83% 0.0 mm 118 W/m2
09:25 7.5 °C 4.8 °C 1018.0 hPa Calm   4.8 km/h 83% 0.0 mm 118 W/m2
09:30 7.5 °C 4.6 °C 1018.0 hPa NNE 3.2 km/h 4.8 km/h 82% 0.0 mm 163 W/m2
09:35 7.6 °C 4.7 °C 1018.3 hPa ENE 1.4 km/h 4.8 km/h 82% 0.0 mm 200 W/m2
09:40 7.8 °C 4.9 °C 1018.0 hPa WNW 7.9 km/h 8 km/h 82% 0.0 mm 265 W/m2
09:45 7.9 °C 5 °C 1018.0 hPa Calm   3.2 km/h 82% 0.0 mm 369 W/m2
09:50 8.3 °C 5.4 °C 1018.0 hPa ENE 7.9 km/h 16.1 km/h 82% 0.0 mm 232 W/m2
09:55 8.4 °C 5.3 °C 1018.0 hPa NNW 3.2 km/h 3.2 km/h 81% 0.0 mm 156 W/m2
10:00 8.4 °C 5.3 °C 1018.0 hPa ENE 4.7 km/h 6.4 km/h 81% 0.0 mm 171 W/m2
10:05 8.4 °C 5.3 °C 1018.0 hPa North 1.4 km/h 4.8 km/h 81% 0.0 mm 209 W/m2
10:10 8.5 °C 5.4 °C 1017.6 hPa NNE 1.4 km/h 6.4 km/h 81% 0.0 mm 234 W/m2
10:15 8.6 °C 5.3 °C 1017.6 hPa WNW 6.4 km/h 6.4 km/h 80% 0.0 mm 199 W/m2
10:21 8.6 °C 5.5 °C 1017.6 hPa ENE 6.4 km/h 17.7 km/h 81% 0.0 mm 171 W/m2
10:26 8.6 °C 5.3 °C 1017.6 hPa SW 3.2 km/h 3.2 km/h 80% 0.0 mm 155 W/m2
10:31 8.6 °C 5.5 °C 1017.6 hPa NNW 14.5 km/h 14.5 km/h 81% 0.0 mm 281 W/m2
10:36 8.7 °C 5.6 °C 1017.6 hPa Calm   3.2 km/h 81% 0.0 mm 216 W/m2
10:41 8.8 °C 5.5 °C 1017.3 hPa NNE 12.9 km/h 12.9 km/h 80% 0.0 mm 239 W/m2
10:46 8.8 °C 5.7 °C 1017.3 hPa SE 4.7 km/h 11.3 km/h 81% 0.0 mm 330 W/m2
10:51 9.1 °C 6 °C 1017.3 hPa NNW 4.7 km/h 12.9 km/h 81% 0.0 mm 668 W/m2
10:56 9.4 °C 6.1 °C 1016.9 hPa West 9.7 km/h 16.1 km/h 80% 0.0 mm 278 W/m2
11:01 9.6 °C 6.1 °C 1016.9 hPa WNW 3.2 km/h 17.7 km/h 79% 0.0 mm 316 W/m2
11:06 9.6 °C 6.1 °C 1016.9 hPa West 3.2 km/h 14.5 km/h 79% 0.0 mm 213 W/m2
11:11 9.7 °C 6.2 °C 1016.9 hPa NW 4.7 km/h 17.7 km/h 79% 0.0 mm 329 W/m2
11:16 9.8 °C 6.3 °C 1016.9 hPa NW 4.7 km/h 17.7 km/h 79% 0.0 mm 237 W/m2
11:21 9.9 °C 6.2 °C 1016.9 hPa NNE 3.2 km/h 8 km/h 78% 0.0 mm 237 W/m2
11:26 10.1 °C 6.4 °C 1016.9 hPa NW 3.2 km/h 9.7 km/h 78% 0.0 mm 281 W/m2
11:31 9.9 °C 6.2 °C 1016.6 hPa West 3.2 km/h 14.5 km/h 78% 0.0 mm 271 W/m2
11:36 9.8 °C 6.1 °C 1016.6 hPa East 1.4 km/h 16.1 km/h 78% 0.0 mm 230 W/m2
11:41 10.1 °C 6.6 °C 1016.6 hPa South 9.7 km/h 14.5 km/h 79% 0.0 mm 315 W/m2
11:46 10.2 °C 6.5 °C 1016.6 hPa Calm   8 km/h 78% 0.0 mm 258 W/m2
11:51 10.2 °C 6.3 °C 1016.3 hPa NW 4.7 km/h 17.7 km/h 77% 0.0 mm 274 W/m2
11:56 10.3 °C 6.6 °C 1016.3 hPa ESE 4.7 km/h 8 km/h 78% 0.0 mm 218 W/m2
12:01 10.3 °C 6.4 °C 1016.3 hPa NW 11.1 km/h 20.9 km/h 77% 0.0 mm 285 W/m2
12:06 10.4 °C 6.5 °C 1016.3 hPa NW 3.2 km/h 4.8 km/h 77% 0.0 mm 244 W/m2
12:11 10.6 °C 6.9 °C 1015.9 hPa NW 1.4 km/h 6.4 km/h 78% 0.0 mm 274 W/m2
12:16 10.7 °C 6.4 °C 1016.3 hPa WSW 4.7 km/h 14.5 km/h 75% 0.0 mm 341 W/m2
12:21 10.8 °C 6.5 °C 1016.3 hPa SSE 4.7 km/h 8 km/h 75% 0.0 mm 262 W/m2
12:26 10.8 °C 6.2 °C 1015.9 hPa Calm   11.3 km/h 73% 0.0 mm 183 W/m2
12:31 10.9 °C 6.4 °C 1015.9 hPa NNE 1.4 km/h 12.9 km/h 74% 0.0 mm 218 W/m2
12:36 10.9 °C 6.3 °C 1015.9 hPa NW 3.2 km/h 6.4 km/h 73% 0.0 mm 197 W/m2
12:41 11 °C 5.9 °C 1015.6 hPa NNW 4.7 km/h 11.3 km/h 71% 0.0 mm 218 W/m2
12:46 11.1 °C 5.8 °C 1015.2 hPa SW 7.9 km/h 12.9 km/h 70% 0.0 mm 563 W/m2
12:51 11.3 °C 6 °C 1015.2 hPa WNW 1.4 km/h 14.5 km/h 70% 0.0 mm 376 W/m2
12:56 11.6 °C 6.5 °C 1015.2 hPa West 14.3 km/h 22.5 km/h 71% 0.0 mm 559 W/m2
13:01 11.8 °C 6.3 °C 1014.9 hPa WNW 3.2 km/h 20.9 km/h 69% 0.0 mm 341 W/m2
13:06 11.8 °C 6.1 °C 1014.9 hPa NNW 4.7 km/h 22.5 km/h 68% 0.0 mm 520 W/m2
13:11 11.8 °C 6.1 °C 1014.9 hPa WNW 4.7 km/h 8 km/h 68% 0.0 mm 394 W/m2
13:16 12 °C 5.8 °C 1014.6 hPa West 6.4 km/h 19.3 km/h 66% 0.0 mm 482 W/m2
13:21 12 °C 5.8 °C 1014.6 hPa NW 7.9 km/h 14.5 km/h 66% 0.0 mm 185 W/m2
13:26 11.9 °C 5.7 °C 1014.6 hPa WSW 3.2 km/h 8 km/h 66% 0.0 mm 149 W/m2
13:31 11.9 °C 5.7 °C 1014.6 hPa WSW 13 km/h 24.1 km/h 66% 0.0 mm 167 W/m2
13:36 11.8 °C 5.9 °C 1014.6 hPa NNW 6.4 km/h 8 km/h 67% 0.0 mm 348 W/m2
13:41 12 °C 6.1 °C 1014.6 hPa North 3.2 km/h 24.1 km/h 67% 0.0 mm 302 W/m2
13:47 12.1 °C 5.9 °C 1014.2 hPa Calm   12.9 km/h 66% 0.0 mm 214 W/m2
13:52 12.1 °C 5.9 °C 1014.2 hPa NW 3.2 km/h 14.5 km/h 66% 0.0 mm 174 W/m2
13:57 11.9 °C 5.7 °C 1014.2 hPa NNW 6.4 km/h 12.9 km/h 66% 0.0 mm 188 W/m2
14:02 11.9 °C 5.7 °C 1014.2 hPa WNW 13 km/h 14.5 km/h 66% 0.0 mm 313 W/m2
14:07 12 °C 5.8 °C 1013.9 hPa WNW 6.4 km/h 8 km/h 66% 0.0 mm 206 W/m2
14:12 12.1 °C 5.9 °C 1013.9 hPa WSW 1.4 km/h 16.1 km/h 66% 0.0 mm 251 W/m2
14:17 12.2 °C 5.8 °C 1013.5 hPa NW 4.7 km/h 12.9 km/h 65% 0.0 mm 264 W/m2
14:22 12.2 °C 5.6 °C 1013.5 hPa NW 6.4 km/h 14.5 km/h 64% 0.0 mm 213 W/m2
14:27 12.2 °C 5.6 °C 1013.5 hPa West 6.4 km/h 8 km/h 64% 0.0 mm 178 W/m2
14:32 12.1 °C 5.5 °C 1013.5 hPa NE 4.7 km/h 11.3 km/h 64% 0.0 mm 160 W/m2
14:37 12.1 °C 5.5 °C 1013.5 hPa East 4.7 km/h 9.7 km/h 64% 0.0 mm 148 W/m2
14:42 12.1 °C 5.7 °C 1013.2 hPa East 3.2 km/h 4.8 km/h 65% 0.0 mm 236 W/m2
14:47 12.1 °C 5.7 °C 1013.2 hPa SW 9.7 km/h 17.7 km/h 65% 0.0 mm 176 W/m2
14:52 12.1 °C 5.7 °C 1013.2 hPa West 3.2 km/h 14.5 km/h 65% 0.0 mm 146 W/m2
14:58 12.2 °C 6 °C 1013.2 hPa NNW 1.4 km/h 17.7 km/h 66% 0.0 mm 178 W/m2
15:03 12.2 °C 6 °C 1012.9 hPa NW 6.4 km/h 8 km/h 66% 0.0 mm 148 W/m2
15:08 12.1 °C 5.9 °C 1012.9 hPa NW 13 km/h 20.9 km/h 66% 0.0 mm 167 W/m2
15:13 12 °C 6.1 °C 1012.9 hPa West 11.1 km/h 17.7 km/h 67% 0.0 mm 144 W/m2
15:18 11.9 °C 6 °C 1012.9 hPa ESE 3.2 km/h 20.9 km/h 67% 0.0 mm 120 W/m2
15:23 11.9 °C 5.7 °C 1012.9 hPa WNW 6.4 km/h 11.3 km/h 66% 0.0 mm 144 W/m2
15:28 11.9 °C 6 °C 1012.9 hPa ENE 3.2 km/h 6.4 km/h 67% 0.0 mm 98 W/m2
15:33 11.9 °C 6.2 °C 1012.9 hPa NE 3.2 km/h 6.4 km/h 68% 0.0 mm 90 W/m2
15:38 11.9 °C 6.2 °C 1012.9 hPa West 1.4 km/h 9.7 km/h 68% 0.0 mm 56 W/m2
15:43 11.8 °C 6.1 °C 1012.5 hPa North 6.4 km/h 6.4 km/h 68% 0.0 mm 74 W/m2
15:48 11.8 °C 6.1 °C 1012.9 hPa WNW 6.4 km/h 8 km/h 68% 0.0 mm 39 W/m2
15:53 11.7 °C 6 °C 1012.9 hPa SE 3.2 km/h 12.9 km/h 68% 0.0 mm 42 W/m2
15:58 11.7 °C 6.2 °C 1012.9 hPa West 1.4 km/h 9.7 km/h 69% 0.0 mm 72 W/m2
16:03 11.5 °C 6.6 °C 1012.9 hPa NNW 6.4 km/h 12.9 km/h 72% 0.0 mm 65 W/m2
16:08 11.3 °C 7 °C 1012.9 hPa WNW 3.2 km/h 11.3 km/h 75% 0.2 mm 81 W/m2
16:13 11 °C 7.1 °C 1012.9 hPa WNW 3.2 km/h 12.9 km/h 77% 0.5 mm 84 W/m2
16:19 10.8 °C 7.1 °C 1012.9 hPa Calm   3.2 km/h 78% 0.5 mm 60 W/m2
16:24 10.6 °C 7.3 °C 1012.9 hPa NNE 3.2 km/h 9.7 km/h 80% 0.5 mm 40 W/m2
16:29 10.4 °C 7.3 °C 1012.9 hPa WNW 3.2 km/h 8 km/h 81% 0.5 mm 53 W/m2
16:34 10.2 °C 7.3 °C 1012.9 hPa West 1.4 km/h 1.6 km/h 82% 0.5 mm 69 W/m2
16:39 9.9 °C 7.3 °C 1012.9 hPa WSW 1.4 km/h 9.7 km/h 84% 0.5 mm 60 W/m2
16:44 9.8 °C 7.4 °C 1012.9 hPa Calm   1.6 km/h 85% 0.5 mm 69 W/m2
16:49 9.8 °C 7.4 °C 1012.9 hPa Calm   8 km/h 85% 0.5 mm 44 W/m2
16:54 9.7 °C 7.5 °C 1012.9 hPa Calm   1.6 km/h 86% 0.5 mm 40 W/m2
16:59 9.6 °C 7.4 °C 1012.9 hPa WSW 1.4 km/h 8 km/h 86% 0.5 mm 26 W/m2
17:04 9.5 °C 7.4 °C 1012.9 hPa NNW 4.7 km/h 4.8 km/h 87% 0.5 mm 32 W/m2
17:09 9.4 °C 7.5 °C 1012.9 hPa Calm   3.2 km/h 88% 0.5 mm 25 W/m2
17:14 9.3 °C 7.4 °C 1012.5 hPa East 6.4 km/h 6.4 km/h 88% 0.2 mm 19 W/m2
17:19 9.2 °C 7.3 °C 1012.5 hPa NNE 3.2 km/h 3.2 km/h 88% 0.2 mm 19 W/m2
17:24 9.2 °C 7.5 °C 1012.5 hPa NNE 1.4 km/h 1.6 km/h 89% 0.2 mm 25 W/m2
17:29 9.2 °C 7.5 °C 1012.5 hPa Calm   4.8 km/h 89% 0.2 mm 25 W/m2
17:34 9.1 °C 7.4 °C 1012.2 hPa NE 1.4 km/h 4.8 km/h 89% 0.2 mm 25 W/m2
17:39 9.1 °C 7.4 °C 1012.2 hPa NNE 1.4 km/h 3.2 km/h 89% 0.5 mm 19 W/m2
17:44 9.1 °C 7.5 °C 1012.2 hPa Calm   3.2 km/h 90% 0.5 mm 14 W/m2
17:49 9.1 °C 7.5 °C 1012.2 hPa ENE 3.2 km/h 3.2 km/h 90% 0.5 mm 12 W/m2
17:54 9.1 °C 7.5 °C 1012.2 hPa NNE 3.2 km/h 4.8 km/h 90% 0.5 mm 7 W/m2
17:59 9.1 °C 7.5 °C 1012.2 hPa Calm     90% 0.5 mm 9 W/m2
18:04 9 °C 7.6 °C 1012.2 hPa Calm   4.8 km/h 91% 0.2 mm 7 W/m2
18:09 9 °C 7.6 °C 1012.2 hPa NE 3.2 km/h 3.2 km/h 91% 0.2 mm 7 W/m2
18:14 9 °C 7.6 °C 1012.2 hPa NW 1.4 km/h 6.4 km/h 91% 0.2 mm 0 W/m2
18:19 9 °C 7.4 °C 1012.2 hPa Calm   3.2 km/h 90% 0.2 mm 0 W/m2
18:24 9.1 °C 7.5 °C 1012.2 hPa Calm   3.2 km/h 90% 0.2 mm 0 W/m2
18:29 9.1 °C 7.5 °C 1012.2 hPa WNW 4.7 km/h 4.8 km/h 90% 0.2 mm 0 W/m2
18:34 9.1 °C 7.5 °C 1011.9 hPa NE 1.4 km/h 1.6 km/h 90% 0.2 mm 0 W/m2
18:40 9.1 °C 7.5 °C 1011.9 hPa WNW 3.2 km/h 6.4 km/h 90% 0.0 mm 0 W/m2
18:45 9 °C 7.4 °C 1011.9 hPa East 4.7 km/h 4.8 km/h 90% 0.2 mm 0 W/m2
18:50 8.9 °C 7.5 °C 1011.9 hPa WNW 1.4 km/h 8 km/h 91% 0.2 mm 0 W/m2
18:55 8.9 °C 7.5 °C 1011.9 hPa North 1.4 km/h 6.4 km/h 91% 0.5 mm 0 W/m2
19:00 8.8 °C 7.4 °C 1011.9 hPa NNW 1.4 km/h 8 km/h 91% 0.5 mm 0 W/m2
19:05 8.8 °C 7.6 °C 1011.9 hPa ENE 3.2 km/h 4.8 km/h 92% 0.5 mm 0 W/m2
19:10 8.8 °C 7.6 °C 1011.9 hPa Calm   6.4 km/h 92% 0.5 mm 0 W/m2
19:15 8.7 °C 7.5 °C 1011.9 hPa Calm   6.4 km/h 92% 0.5 mm 0 W/m2
19:20 8.7 °C 7.5 °C 1011.9 hPa NNW 3.2 km/h 8 km/h 92% 0.5 mm 0 W/m2
19:25 8.7 °C 7.5 °C 1011.9 hPa North 4.7 km/h 8 km/h 92% 0.5 mm 0 W/m2
19:30 8.6 °C 7.4 °C 1011.9 hPa North 4.7 km/h 6.4 km/h 92% 0.5 mm 0 W/m2
19:35 8.6 °C 7.4 °C 1011.9 hPa ESE 4.7 km/h 14.5 km/h 92% 0.5 mm 0 W/m2
19:40 8.5 °C 7.3 °C 1011.9 hPa West 4.7 km/h 12.9 km/h 92% 0.2 mm 0 W/m2
19:45 8.5 °C 7.3 °C 1011.9 hPa NNW 1.4 km/h 14.5 km/h 92% 0.5 mm 0 W/m2
19:50 8.4 °C 7.3 °C 1011.5 hPa NW 6.4 km/h 6.4 km/h 93% 0.5 mm 0 W/m2
19:56 8.4 °C 7.2 °C 1011.5 hPa North 1.4 km/h 3.2 km/h 92% 0.2 mm 0 W/m2
20:01 8.4 °C 7.3 °C 1011.5 hPa SSW 11.1 km/h 14.5 km/h 93% 0.2 mm 0 W/m2
20:06 8.4 °C 7.3 °C 1011.2 hPa NE 1.4 km/h 8 km/h 93% 0.2 mm 0 W/m2
20:11 8.4 °C 7.3 °C 1011.5 hPa WNW 3.2 km/h 8 km/h 93% 0.2 mm 0 W/m2
20:16 8.4 °C 7.3 °C 1011.5 hPa ESE 1.4 km/h 9.7 km/h 93% 0.2 mm 0 W/m2
20:21 8.4 °C 7.3 °C 1011.5 hPa WNW 6.4 km/h 6.4 km/h 93% 0.2 mm 0 W/m2
20:26 8.4 °C 7.3 °C 1011.5 hPa West 6.4 km/h 14.5 km/h 93% 0.2 mm 0 W/m2
20:31 8.4 °C 7.3 °C 1011.5 hPa WNW 3.2 km/h 3.2 km/h 93% 0.2 mm 0 W/m2
20:36 8.4 °C 7.3 °C 1011.2 hPa NE 7.9 km/h 16.1 km/h 93% 0.2 mm 0 W/m2
20:41 8.4 °C 7.3 °C 1011.2 hPa NW 1.4 km/h 4.8 km/h 93% 0.2 mm 0 W/m2
20:46 8.5 °C 7.4 °C 1011.2 hPa NE 4.7 km/h 16.1 km/h 93% 0.0 mm 0 W/m2
20:51 8.5 °C 7.4 °C 1010.8 hPa West 9.7 km/h 17.7 km/h 93% 0.2 mm 0 W/m2
20:56 8.4 °C 7.3 °C 1010.8 hPa WNW 3.2 km/h 9.7 km/h 93% 0.2 mm 0 W/m2
21:01 8.4 °C 7.3 °C 1010.8 hPa NNW 9.7 km/h 16.1 km/h 93% 0.2 mm 0 W/m2
21:06 8.4 °C 7.3 °C 1010.8 hPa Calm   4.8 km/h 93% 0.2 mm 0 W/m2
21:12 8.4 °C 7.3 °C 1010.8 hPa ENE 6.4 km/h 16.1 km/h 93% 0.2 mm 0 W/m2
21:17 8.4 °C 7.3 °C 1010.8 hPa NW 3.2 km/h 4.8 km/h 93% 0.2 mm 0 W/m2
21:22 8.4 °C 7.3 °C 1010.8 hPa NW 3.2 km/h 11.3 km/h 93% 0.2 mm 0 W/m2
21:27 8.5 °C 7.4 °C 1010.8 hPa NW 1.4 km/h 6.4 km/h 93% 0.2 mm 0 W/m2
21:32 8.4 °C 7.3 °C 1010.8 hPa NNW 4.7 km/h 8 km/h 93% 0.2 mm 0 W/m2
21:37 8.5 °C 7.4 °C 1010.8 hPa ESE 6.4 km/h 14.5 km/h 93% 0.2 mm 0 W/m2
21:42 8.5 °C 7.4 °C 1010.5 hPa NW 3.2 km/h 6.4 km/h 93% 0.2 mm 0 W/m2
21:47 8.6 °C 7.5 °C 1010.5 hPa WNW 6.4 km/h 14.5 km/h 93% 0.2 mm 0 W/m2
21:52 8.6 °C 7.5 °C 1010.5 hPa SW 3.2 km/h 11.3 km/h 93% 0.0 mm 0 W/m2
21:57 8.6 °C 7.5 °C 1010.5 hPa WNW 6.4 km/h 14.5 km/h 93% 0.0 mm 0 W/m2
22:02 8.6 °C 7.5 °C 1010.5 hPa WNW 4.7 km/h 9.7 km/h 93% 0.0 mm 0 W/m2
22:07 8.6 °C 7.5 °C 1010.8 hPa WNW 13 km/h 27.4 km/h 93% 0.2 mm 0 W/m2
22:12 8.1 °C 6.7 °C 1010.8 hPa WSW 9.7 km/h 14.5 km/h 91% 0.5 mm 0 W/m2
22:17 7.8 °C 6.4 °C 1010.8 hPa WSW 6.4 km/h 19.3 km/h 91% 0.5 mm 0 W/m2
22:22 7.6 °C 6.2 °C 1010.8 hPa WSW 3.2 km/h 9.7 km/h 91% 0.5 mm 0 W/m2
22:27 7.4 °C 6 °C 1010.8 hPa WSW 6.4 km/h 16.1 km/h 91% 0.5 mm 0 W/m2
22:33 7.3 °C 6.1 °C 1010.8 hPa NW 13 km/h 12.9 km/h 92% 0.5 mm 0 W/m2
22:38 7.2 °C 6 °C 1010.8 hPa West 3.2 km/h 11.3 km/h 92% 0.5 mm 0 W/m2
22:43 7.2 °C 6 °C 1010.8 hPa WNW 3.2 km/h 11.3 km/h 92% 0.5 mm 0 W/m2
22:48 7.1 °C 5.9 °C 1010.8 hPa WSW 4.7 km/h 9.7 km/h 92% 0.5 mm 0 W/m2
22:53 7 °C 5.8 °C 1010.8 hPa WSW 4.7 km/h 11.3 km/h 92% 0.5 mm 0 W/m2
22:58 7 °C 5.8 °C 1010.8 hPa SSE 1.4 km/h 6.4 km/h 92% 0.8 mm 0 W/m2
23:03 6.9 °C 5.7 °C 1010.8 hPa West 4.7 km/h 6.4 km/h 92% 0.8 mm 0 W/m2
23:08 6.9 °C 5.8 °C 1010.8 hPa WSW 3.2 km/h 11.3 km/h 93% 0.5 mm 0 W/m2
23:13 6.9 °C 5.8 °C 1010.8 hPa West 4.7 km/h 11.3 km/h 93% 0.5 mm 0 W/m2
23:19 6.9 °C 5.8 °C 1010.8 hPa West 4.7 km/h 8 km/h 93% 0.2 mm 0 W/m2
23:24 6.8 °C 5.7 °C 1010.8 hPa West 3.2 km/h 3.2 km/h 93% 0.2 mm 0 W/m2
23:29 6.8 °C 5.7 °C 1010.8 hPa West 4.7 km/h 6.4 km/h 93% 0.2 mm 0 W/m2
23:34 6.8 °C 5.7 °C 1010.8 hPa WNW 1.4 km/h 6.4 km/h 93% 0.2 mm 0 W/m2
23:39 6.8 °C 5.7 °C 1010.8 hPa WNW 3.2 km/h 3.2 km/h 93% 0.2 mm 0 W/m2
23:44 6.8 °C 5.7 °C 1010.8 hPa West 3.2 km/h 4.8 km/h 93% 0.2 mm 0 W/m2
23:49 6.7 °C 5.6 °C 1010.8 hPa WNW 4.7 km/h 6.4 km/h 93% 0.2 mm 0 W/m2
23:54 6.7 °C 5.6 °C 1010.8 hPa WSW 3.2 km/h 11.3 km/h 93% 0.0 mm 0 W/m2
23:59 6.7 °C 5.6 °C 1010.8 hPa SW 1.4 km/h 6.4 km/h 93% 0.0 mm 0 W/m2
Juneau County Weather
Compliments of Weather Underground - 2 mb